Colby, KS

2:09 PM CST on February 21, 2018 (GMT -0600)
Shaltz

Weather History for KCBK - April, 2013

Change the Weather History Date:

Thursday, April 11, 2013

  Actual Average (KGLD) Record (KGLD)
Temperature  
Mean Temperature 34 °F -  
Max Temperature 50 °F 62 °F 87 °F (1916)
Min Temperature 19 °F 34 °F 11 °F (1997)
Degree Days  
Heating Degree Days 30    
Moisture  
Dew Point 24 °F    
Average Humidity 69    
Maximum Humidity 93    
Minimum Humidity 35    
Precipitation  
Precipitation 0.00 in - - ()
Sea Level Pressure  
Sea Level Pressure 29.80 in    
Wind  
Wind Speed 14 mph (NW)    
Max Wind Speed 32 mph    
Max Gust Speed 38 mph    
Visibility 10 miles    
Events      
Averages and records for this station are not official NWS values.
T = Trace of Precipitation, MM = Missing Value Source: NWS Daily Summary

Daily Weather History Graph

Daily Weather History Graph

Search for Another Location

Airport or City:

Trip Planner

Search our weather history database for the weather conditions in past years. The results will help you decide how hot, cold, wet, or windy it might be!

Date:

Astronomy

Apr. 11, 2013 Rise Set
Actual Time 7:12 AM CDT 8:18 PM CDT
Civil Twilight 6:45 AM CDT 8:45 PM CDT
Nautical Twilight 6:12 AM CDT 9:18 PM CDT
Astronomical Twilight 5:38 AM CDT 9:53 PM CDT
Moon 7:45 AM CDT (4/11) 9:54 PM CDT (4/11)
Length of Visible Light 14h 00m
Length of Day
13h 05m
New Moon, 2% of the Moon is Illuminated
Apr 11
New Moon
Apr 18
First Quarter
Apr 25
Full
May 2
Last Quarter
May 9
New

Hourly Weather History & Observations

Time (CDT) Temp. Windchill Dew Point Humidity Pressure Visibility Wind Dir Wind Speed Gust Speed Precip Events Conditions
12:15 AM 26.6 °F 16.2 °F 23.0 °F 86% 29.96 in 10.0 mi NW 11.5 mph - N/A   Mostly Cloudy
12:35 AM 24.8 °F 14.6 °F 21.2 °F 86% 29.95 in 10.0 mi WNW 10.4 mph - N/A   Overcast
12:55 AM 23.0 °F 12.4 °F 21.2 °F 93% 29.94 in 10.0 mi WNW 10.4 mph - N/A   Overcast
1:15 AM 23.0 °F 11.1 °F 21.2 °F 93% 29.93 in 10.0 mi WNW 12.7 mph - N/A   Overcast
1:35 AM 23.0 °F 13.1 °F 21.2 °F 93% 29.93 in 10.0 mi West 9.2 mph - N/A   Overcast
1:55 AM 23.0 °F 11.1 °F 21.2 °F 93% 29.92 in 10.0 mi WNW 12.7 mph - N/A   Mostly Cloudy
2:15 AM 23.0 °F 10.6 °F 21.2 °F 93% 29.91 in 10.0 mi WNW 13.8 mph - N/A   Scattered Clouds
2:35 AM 21.2 °F 8.9 °F 19.4 °F 93% 29.90 in 10.0 mi WNW 12.7 mph - N/A   Clear
2:55 AM 21.2 °F 8.3 °F 19.4 °F 93% 29.88 in 10.0 mi WNW 13.8 mph - N/A   Clear
3:15 AM 21.2 °F 9.5 °F 19.4 °F 93% 29.86 in 10.0 mi WNW 11.5 mph - N/A   Clear
3:35 AM 21.2 °F 8.9 °F 19.4 °F 93% 29.85 in 10.0 mi WNW 12.7 mph - N/A   Scattered Clouds
3:55 AM 21.2 °F 7.8 °F 19.4 °F 93% 29.83 in 10.0 mi WNW 15.0 mph - N/A   Scattered Clouds
4:15 AM 21.2 °F 8.3 °F 19.4 °F 93% 29.82 in 10.0 mi WNW 13.8 mph - N/A   Clear
4:35 AM 21.2 °F 9.5 °F 19.4 °F 93% 29.82 in 10.0 mi WNW 11.5 mph - N/A   Clear
5:15 AM 21.2 °F 8.3 °F 19.4 °F 93% 29.79 in 10.0 mi WNW 13.8 mph - N/A   Clear
5:35 AM 21.2 °F 7.8 °F 19.4 °F 93% 29.79 in 10.0 mi WNW 15.0 mph - N/A   Clear
5:55 AM 21.2 °F 8.3 °F 19.4 °F 93% 29.78 in 10.0 mi WNW 13.8 mph - N/A   Clear
6:15 AM 21.2 °F 8.9 °F 19.4 °F 93% 29.77 in 10.0 mi NW 12.7 mph - N/A   Clear
6:35 AM 21.2 °F 11.7 °F 17.6 °F 86% 29.77 in 10.0 mi WNW 8.1 mph - N/A   Clear
6:55 AM 21.2 °F 10.9 °F 17.6 °F 86% 29.79 in 10.0 mi West 9.2 mph - N/A   Clear
7:15 AM 21.2 °F 10.9 °F 17.6 °F 86% 29.79 in 10.0 mi West 9.2 mph - N/A   Clear
7:35 AM 19.4 °F 9.5 °F 17.6 °F 93% 29.79 in 10.0 mi West 8.1 mph - N/A   Clear
7:55 AM 21.2 °F 12.6 °F 19.4 °F 93% 29.78 in 10.0 mi WNW 6.9 mph - N/A   Clear
8:15 AM 23.0 °F 12.4 °F 19.4 °F 86% 29.78 in 10.0 mi WNW 10.4 mph - N/A   Clear
8:35 AM 26.6 °F 15.7 °F 21.2 °F 80% 29.78 in 10.0 mi WNW 12.7 mph - N/A   Clear
8:55 AM - - - N/A% - - North - - N/A   Unknown
9:15 AM 30.2 °F 19.8 °F 23.0 °F 75% 29.78 in 10.0 mi NW 13.8 mph - N/A   Clear
9:35 AM 32.0 °F 21.6 °F 23.0 °F 69% 29.79 in 10.0 mi NNW 15.0 mph - N/A   Clear
9:55 AM 32.0 °F 21.2 °F 23.0 °F 69% 29.80 in 10.0 mi NNW 16.1 mph - N/A   Clear
10:15 AM 32.0 °F 21.6 °F 23.0 °F 69% 29.79 in 10.0 mi NNW 15.0 mph - N/A   Clear
10:35 AM 33.8 °F 23.2 °F 23.0 °F 65% 29.79 in 10.0 mi NNW 17.3 mph - N/A   Clear
10:55 AM 33.8 °F 23.2 °F 23.0 °F 65% 29.79 in 10.0 mi NNW 17.3 mph - N/A   Clear
11:15 AM 35.6 °F 26.6 °F 23.0 °F 60% 29.79 in 10.0 mi NW 13.8 mph 19.6 mph N/A   Clear
11:35 AM 35.6 °F 26.2 °F 24.8 °F 65% 29.79 in 10.0 mi NW 15.0 mph 21.9 mph N/A   Clear
11:55 AM 37.4 °F 28.2 °F 24.8 °F 60% 29.78 in 10.0 mi NW 16.1 mph 25.3 mph N/A   Clear
12:15 PM 39.2 °F 29.8 °F 24.8 °F 56% 29.77 in 10.0 mi NW 18.4 mph 26.5 mph N/A   Clear
12:35 PM 41.0 °F 31.9 °F 24.8 °F 53% 29.77 in 10.0 mi NW 19.6 mph 24.2 mph N/A   Clear
12:55 PM 41.0 °F 31.6 °F 23.0 °F 49% 29.76 in 10.0 mi WNW 20.7 mph 26.5 mph N/A   Clear
1:15 PM 42.8 °F 34.0 °F 24.8 °F 49% 29.75 in 10.0 mi WNW 20.7 mph 25.3 mph N/A   Clear
1:35 PM 42.8 °F 33.5 °F 24.8 °F 49% 29.74 in 10.0 mi WNW 23.0 mph 33.4 mph N/A   Clear
1:55 PM 44.6 °F 36.1 °F 24.8 °F 46% 29.74 in 10.0 mi WNW 21.9 mph 28.8 mph N/A   Clear
2:15 PM 46.4 °F 39.0 °F 24.8 °F 43% 29.74 in 10.0 mi NW 19.6 mph 33.4 mph N/A   Clear
2:35 PM 46.4 °F 38.5 °F 26.6 °F 46% 29.73 in 10.0 mi NW 21.9 mph 31.1 mph N/A   Clear
2:55 PM 48.2 °F - 24.8 °F 40% 29.72 in 10.0 mi NW 23.0 mph 33.4 mph N/A   Clear
3:15 PM 50.0 °F - 24.8 °F 37% 29.72 in 10.0 mi NW 21.9 mph 31.1 mph N/A   Clear
3:35 PM 50.0 °F - 24.8 °F 37% 29.72 in 10.0 mi NW 20.7 mph 33.4 mph N/A   Clear
3:55 PM 50.0 °F - 24.8 °F 37% 29.72 in 10.0 mi NW 25.3 mph 32.2 mph N/A   Clear
4:15 PM 50.0 °F - 23.0 °F 35% 29.72 in 10.0 mi NW 23.0 mph 33.4 mph N/A   Clear
4:35 PM 50.0 °F - 26.6 °F 40% 29.72 in 10.0 mi WNW 28.8 mph 33.4 mph N/A   Clear
4:55 PM 48.2 °F - 23.0 °F 37% 29.72 in 10.0 mi NW 32.2 mph 38.0 mph N/A   Clear
5:15 PM 48.2 °F - 24.8 °F 40% 29.73 in 10.0 mi NW 23.0 mph 36.8 mph N/A   Clear
5:35 PM 48.2 °F - 26.6 °F 43% 29.73 in 10.0 mi NNW 26.5 mph 29.9 mph N/A   Clear
5:55 PM 48.2 °F - 28.4 °F 46% 29.73 in 10.0 mi NW 25.3 mph 35.7 mph N/A   Clear
6:15 PM 48.2 °F - 28.4 °F 46% 29.74 in 10.0 mi NNW 28.8 mph 33.4 mph N/A   Clear
6:35 PM 46.4 °F 37.4 °F 28.4 °F 50% 29.75 in 10.0 mi NW 28.8 mph 36.8 mph N/A   Clear
6:55 PM 46.4 °F 38.5 °F 30.2 °F 53% 29.76 in 10.0 mi NW 21.9 mph 32.2 mph N/A   Clear
7:15 PM 46.4 °F 38.3 °F 32.0 °F 57% 29.76 in 10.0 mi NNW 23.0 mph 32.2 mph N/A   Mostly Cloudy
7:35 PM 44.6 °F 36.6 °F 32.0 °F 61% 29.76 in 10.0 mi NNW 19.6 mph 24.2 mph N/A   Overcast
7:55 PM 44.6 °F 37.2 °F 32.0 °F 61% 29.77 in 10.0 mi NNW 17.3 mph 26.5 mph N/A   Overcast
8:15 PM 44.6 °F 38.8 °F 32.0 °F 61% 29.77 in 10.0 mi North 11.5 mph - N/A   Overcast
8:35 PM 42.8 °F 36.6 °F 32.0 °F 66% 29.78 in 10.0 mi North 11.5 mph - N/A   Overcast
8:55 PM 41.0 °F 35.8 °F 32.0 °F 70% 29.79 in 10.0 mi North 8.1 mph - N/A   Mostly Cloudy
9:15 PM 37.4 °F 32.8 °F 30.2 °F 75% 29.80 in 10.0 mi North 5.8 mph - N/A   Scattered Clouds
9:35 PM 35.6 °F 29.2 °F 30.2 °F 81% 29.82 in 10.0 mi North 8.1 mph - N/A   Scattered Clouds
9:55 PM 35.6 °F 28.0 °F 30.2 °F 81% 29.83 in 10.0 mi North 10.4 mph - N/A   Scattered Clouds
10:15 PM 35.6 °F 28.0 °F 28.4 °F 75% 29.84 in 10.0 mi North 10.4 mph - N/A   Mostly Cloudy
10:35 PM 37.4 °F 31.4 °F 28.4 °F 70% 29.85 in 10.0 mi NNW 8.1 mph - N/A   Overcast
10:55 PM 37.4 °F 31.4 °F 28.4 °F 70% 29.86 in 10.0 mi NNW 8.1 mph - N/A   Overcast
11:15 PM 37.4 °F 30.8 °F 28.4 °F 70% 29.86 in 10.0 mi North 9.2 mph - N/A   Overcast
11:35 PM 35.6 °F 29.9 °F 28.4 °F 75% 29.86 in 10.0 mi NNW 6.9 mph - N/A   Overcast
11:55 PM 35.6 °F 29.9 °F 28.4 °F 75% 29.87 in 10.0 mi NNW 6.9 mph - N/A   Overcast